Lapse_Rate
6.5 6.2 6.2 6.2 6.1 5.9 5.9 5.8 5.8 5.8 6.1 6.0 5.9 5.9 5.9 5.8 5.6 5.6 5.5 5.5 5.5 5.4 5.5 5.5 5.4 5.4 5.4 5.4 5.4 5.5 5.6 5.5 5.4 5.3 5.3 5.1 5.2 5.2
6.5 6.2 6.2 6.2 6.1 6.0 6.0 6.0 5.9 5.8 5.9 5.9 6.1 6.0 5.8 5.9 5.9 5.8 5.6 5.5 5.5 5.3 5.4 5.3 5.4 5.3 5.3 5.2 5.0 5.0 5.0 5.1 5.2 5.3 5.2 5.3 5.1 5.2
6.5 6.4 6.3 6.2 6.2 6.1 6.0 5.9 5.9 5.8 5.8 5.8 5.9 6.0 5.9 5.9 5.9 5.7 5.6 5.5 5.6 5.5 5.4 5.5 5.3 5.3 5.3 5.1 5.1 5.0 4.9 5.0 5.1 5.1 5.3 5.3 5.2 5.3
6.5 6.3 6.3 6.2 6.1 6.1 6.1 6.0 5.9 5.8 5.6 5.6 5.6 5.7 5.8 5.7 5.6 5.7 5.7 5.6 5.6 5.6 5.4 5.3 5.1 5.0 5.0 5.0 5.0 4.9 4.9 4.8 4.8 4.8 4.8 4.9 4.7 4.9
6.5 6.3 6.3 6.1 6.0 6.1 6.0 5.9 5.9 5.8 5.7 5.6 5.5 5.5 5.6 5.7 5.6 5.6 5.6 5.6 5.6 5.3 5.2 5.2 4.9 4.9 4.9 4.8 4.8 4.9 4.6 4.7 4.9 4.7 4.6 4.8 4.6 4.6
6.3 6.3 6.2 6.0 5.9 5.9 6.0 6.0 5.8 5.6 5.7 5.6 5.7 5.6 5.5 5.7 5.7 5.5 5.5 5.4 5.3 5.2 4.9 5.1 5.0 5.2 4.9 4.6 4.8 4.7 4.8 4.8 4.7 4.6 4.5 4.5 4.5 4.3
6.0 6.1 6.1 6.1 6.1 6.0 5.8 5.8 5.9 5.9 5.9 5.7 5.8 5.8 5.5 5.4 5.6 5.5 5.2 5.2 5.1 5.0 4.9 4.8 5.0 4.9 5.0 5.0 4.6 4.5 4.6 4.6 4.8 4.6 4.7 4.5 4.2 4.0
5.7 5.9 6.0 5.9 5.8 5.9 5.9 6.0 6.0 6.1 5.3 5.2 5.5 5.5 5.5 5.5 5.5 5.4 5.4 5.2 4.9 5.1 4.9 4.9 4.9 5.0 4.8 4.5 4.2 4.2 4.5 4.7 4.9 4.8 4.6 4.4 4.1 3.7
5.5 5.6 5.7 5.8 5.6 5.6 6.0 5.4 5.8 5.3 5.2 5.1 5.9 6.0 5.9 5.6 5.5 5.3 5.4 5.2 5.3 5.4 5.2 4.9 4.9 4.8 4.6 4.7 4.4 4.7 4.8 4.8 4.6 4.5 4.3 4.3 4.2 4.1
5.4 5.3 5.4 5.6 5.5 5.1 5.2 5.3 5.6 5.3 5.7 5.7 5.5 5.6 5.4 5.3 5.2 5.6 5.4 5.6 5.3 5.4 5.1 4.8 4.8 4.9 4.8 5.0 4.9 4.9 4.7 4.4 4.5 4.3 4.3 4.2 4.3 3.9
5.6 5.8 5.6 5.5 5.4 5.4 5.4 5.2 5.6 5.5 5.6 5.5 5.3 5.4 5.2 5.1 5.3 5.2 5.3 5.3 5.5 5.2 5.3 5.2 5.1 5.1 5.3 5.1 5.1 4.9 4.8 4.6 4.5 4.4 4.1 3.8 3.9 3.7
5.9 5.6 5.5 5.6 5.6 5.7 5.7 5.6 5.9 5.7 5.5 5.5 5.6 5.7 5.8 5.7 5.5 5.6 5.5 5.7 5.6 5.5 5.4 5.6 5.6 5.5 5.3 5.1 5.0 4.8 4.9 4.6 4.2 3.9 4.1 3.9 3.7 3.8
5.9 5.6 5.5 6.0 5.5 5.4 5.8 5.7 5.8 6.0 5.8 5.9 5.9 5.9 6.0 5.8 5.6 5.6 5.9 5.7 5.6 5.7 5.6 5.7 5.7 5.5 5.3 5.1 5.1 5.0 4.7 4.4 4.0 4.0 3.9 3.7 3.8 4.0
5.5 6.0 5.7 5.6 5.5 5.9 5.9 5.9 5.9 6.1 6.1 5.9 5.9 6.2 5.6 6.0 5.8 6.0 5.9 5.9 5.7 5.8 5.8 5.6 5.5 5.5 5.4 5.2 5.2 4.8 4.5 4.2 4.1 4.1 3.9 3.9 4.1 4.2
5.7 5.9 6.0 5.9 5.9 6.1 6.3 6.2 6.0 6.1 6.0 6.1 6.3 6.1 6.0 5.8 6.1 6.0 5.8 5.9 5.9 5.8 5.6 5.6 5.6 5.5 5.3 5.2 4.9 4.6 4.3 4.0 4.1 4.0 3.9 4.0 4.2 4.5
5.9 5.3 5.9 6.0 5.8 6.0 5.8 5.7 5.8 6.1 5.9 5.5 6.3 5.7 6.2 5.8 6.0 5.9 6.0 5.8 5.9 5.7 5.6 5.6 5.6 5.3 5.2 4.8 4.6 4.3 4.1 4.1 4.1 4.0 4.1 4.3 4.6 4.8
5.3 5.7 5.8 5.8 5.6 5.5 5.9 6.0 6.1 6.1 5.7 5.7 5.8 6.0 5.9 5.8 5.8 5.9 5.8 5.8 5.9 5.7 5.6 5.6 5.3 5.0 4.8 4.5 4.3 4.1 3.9 4.1 4.0 4.1 4.4 4.6 4.7 4.8
5.6 6.0 6.0 5.8 5.9 5.7 5.8 5.9 6.1 5.9 5.9 5.5 5.8 5.7 6.0 5.9 6.0 6.0 5.8 5.7 5.5 5.4 5.3 5.1 4.8 4.6 4.4 4.3 4.0 3.9 4.1 4.1 4.0 4.3 4.7 4.9 4.8 4.8
6.1 6.1 6.1 5.9 6.0 5.7 5.7 5.8 5.9 6.0 6.1 6.0 6.0 5.9 5.9 5.8 5.7 5.5 5.4 5.1 5.0 4.8 4.8 4.5 4.3 4.2 4.1 4.0 3.8 4.2 4.1 4.1 4.3 4.7 4.8 4.9 5.1 4.7
5.9 6.2 6.1 5.9 6.0 5.8 5.8 5.8 5.8 5.8 5.6 5.8 5.6 5.5 5.4 5.3 5.1 4.9 4.5 4.5 4.4 4.1 4.2 4.2 4.1 4.0 3.7 3.8 4.3 3.9 4.0 4.3 4.6 4.7 4.8 5.2 5.2 5.2
4.9 5.5 5.6 5.5 5.4 5.1 5.4 5.4 5.3 5.1 4.9 5.1 4.7 4.5 4.7 4.7 4.8 4.5 4.2 3.9 3.9 3.7 3.7 3.8 3.7 3.8 4.4 4.3 4.1 4.0 4.3 4.6 4.7 4.8 5.0 5.0 4.9 5.1
4.1 4.0 4.5 4.7 4.8 4.7 4.7 4.2 4.1 4.3 4.2 4.3 4.1 4.1 4.3 4.4 4.3 4.0 3.8 3.6 3.6 3.6 3.6 3.6 4.0 4.2 4.1 4.1 4.2 4.4 4.5 4.6 4.8 5.0 5.1 5.1 5.3 5.5
3.9 3.8 3.7 3.5 3.6 3.9 3.8 3.8 3.8 3.7 3.9 3.9 4.1 4.0 4.0 4.0 3.7 3.3 3.1 3.2 3.3 3.5 3.8 3.8 4.0 4.0 4.1 4.3 4.5 4.6 4.6 4.7 4.8 4.8 4.8 5.0 5.0 5.0
Wind_Speed
8 9 6 4 4 4 4 10 6 5 9 5 4 13 14 16 16 16 16 15 16 7 10 12 13 9 8 8 7 7 7 6 5 4 4 4 5 5
10 10 7 5 6 4 6 5 3 5 6 5 6 3 14 13 18 17 17 15 16 16 13 14 12 10 10 8 7 7 6 5 5 3 3 2 3 4
11 12 14 9 7 7 5 4 4 4 4 1 1 3 4 9 12 16 15 16 18 21 17 15 15 13 12 11 10 8 7 5 4 3 2 1 1 3
16 14 15 9 11 9 8 10 9 5 4 5 2 3 4 6 12 11 12 17 19 20 19 16 15 14 13 12 10 9 7 6 4 3 2 2 1 2
16 17 18 14 13 9 9 9 7 5 3 4 4 2 2 3 3 3 6 10 16 20 18 17 15 15 15 14 13 11 9 8 6 5 3 3 2 1
16 16 16 15 17 14 12 12 8 7 3 3 3 3 3 2 4 6 4 2 3 12 16 18 17 15 15 14 12 11 9 8 7 6 6 5 3 1
17 17 17 17 20 19 11 12 12 8 5 3 2 2 4 4 13 7 7 5 2 6 5 11 15 17 16 15 14 12 10 9 8 8 8 6 4 3
18 17 16 16 17 21 21 18 16 13 11 8 7 6 10 8 9 9 7 7 5 12 6 5 14 8 15 14 15 13 11 10 9 9 9 8 6 6
17 14 12 10 16 14 18 21 21 23 20 15 15 11 10 13 14 13 11 11 6 4 8 6 8 6 13 14 15 15 13 10 10 12 11 8 7 7
18 18 18 17 17 19 18 16 17 18 17 12 16 14 12 15 17 14 12 7 4 5 15 6 5 5 10 16 16 17 15 12 11 13 11 9 9 9
16 18 19 18 26 28 17 18 15 12 19 24 21 19 21 28 25 11 10 10 5 3 9 3 3 3 3 5 17 17 17 14 11 15 12 11 11 8
12 13 22 22 24 29 21 18 16 15 14 12 11 16 23 27 34 22 12 13 7 3 5 6 3 3 2 4 10 16 13 15 12 16 15 11 6 6
9 9 10 22 23 30 30 18 21 15 20 13 9 9 9 11 13 19 21 11 11 2 9 6 4 4 2 2 2 7 11 7 6 5 4 2 5 8
12 10 11 21 26 30 26 24 21 19 11 11 11 10 9 10 10 14 17 14 15 8 24 19 4 5 4 2 2 2 4 7 7 5 5 3 5 5
11 14 17 19 22 19 26 22 21 11 12 11 12 10 10 10 12 12 14 16 13 17 23 14 7 6 4 3 3 3 3 3 6 6 5 7 5 5
12 8 11 13 16 14 13 12 10 11 12 12 11 9 8 8 8 9 7 8 7 3 8 14 14 11 3 2 3 3 2 3 4 6 6 5 8 8
6 4 5 7 10 10 9 11 9 9 10 9 9 10 11 9 7 8 8 9 4 7 4 5 11 11 7 6 2 2 3 2 3 4 2 2 6 9
6 6 8 9 11 11 12 12 11 14 10 9 9 11 11 10 9 8 9 8 9 7 5 3 4 3 2 1 5 3 2 2 2 5 4 2 2 6
6 7 8 10 9 10 11 9 9 9 12 11 10 10 10 9 14 10 9 8 7 6 7 6 5 3 3 3 1 13 4 3 3 2 3 3 2 4
5 6 7 7 7 8 8 8 8 9 9 10 9 10 10 11 10 10 9 9 8 5 5 5 6 4 5 5 3 2 16 3 3 2 2 3 9 13
2 2 3 4 6 7 8 8 10 10 9 10 9 10 10 11 10 10 10 15 12 5 7 7 7 12 9 6 2 1 2 14 11 4 2 2 2 2
3 4 4 5 7 7 8 9 8 10 9 9 9 9 9 10 10 10 9 10 8 7 5 4 7 7 3 4 4 3 2 2 10 11 13 11 3 3
4 5 5 6 6 7 8 8 9 8 9 9 9 9 9 9 9 9 8 8 8 6 5 4 4 3 5 5 6 3 3 2 2 1 3 13 16 18
Wind_Direction
200 194 196 191 176 164 150 174 148 170 219 221 196 206 201 193 190 187 179 180 174 189 150 131 114 119 137 141 149 153 151 147 145 133 111 85 66 55
206 199 201 180 187 174 173 173 163 156 200 176 205 171 186 189 190 191 187 181 172 153 147 138 141 156 154 157 165 165 164 168 163 149 129 106 63 45
204 200 209 191 189 187 179 161 163 146 150 235 120 167 161 168 177 188 182 179 166 158 157 157 165 171 171 172 174 174 177 174 169 163 151 135 36 11
205 205 211 197 197 185 187 194 191 172 137 161 161 175 179 187 174 167 176 180 170 165 166 172 174 176 181 179 178 178 176 175 178 190 188 183 238 319
206 207 211 199 199 188 191 191 189 176 153 141 156 144 140 160 120 130 168 177 179 169 175 175 181 185 186 184 182 179 182 184 185 187 184 194 214 271
206 210 213 203 206 195 190 191 171 163 133 122 142 145 147 168 155 170 178 182 177 176 180 178 186 192 193 189 188 185 185 194 201 207 212 196 187 258
207 204 206 206 206 197 187 185 168 161 147 139 131 167 150 162 193 179 181 165 187 171 145 165 175 191 199 198 192 190 195 203 208 221 206 207 218 241
205 205 207 200 197 196 196 184 176 168 182 191 187 215 196 192 173 181 169 165 194 201 172 180 179 186 194 201 194 200 204 215 226 225 211 221 229 253
206 200 196 198 189 186 191 192 199 208 211 199 200 203 184 186 170 175 184 192 181 155 176 188 184 202 203 207 207 209 214 226 231 221 214 226 245 268
202 199 197 197 200 201 203 201 205 208 201 193 198 198 195 172 182 184 181 153 78 154 177 193 173 204 188 212 213 215 218 223 236 213 218 236 257 271
212 206 203 207 207 198 195 197 199 204 199 200 212 191 175 172 172 153 167 165 170 176 190 124 161 137 165 204 216 215 219 222 235 215 225 241 259 275
216 225 213 210 206 191 196 190 195 196 176 177 177 167 169 178 175 178 168 180 166 164 187 164 133 134 192 208 200 211 226 220 238 230 226 248 253 292
212 218 221 207 202 197 197 194 205 177 183 178 166 158 164 172 181 185 183 179 178 152 171 150 155 160 135 143 166 187 191 182 175 148 155 225 267 274
217 223 225 213 207 199 196 202 198 168 167 167 169 169 170 178 180 183 181 180 179 154 167 171 154 161 138 136 161 141 164 178 174 179 218 236 255 250
215 220 220 208 211 220 212 190 179 170 171 177 180 180 178 168 152 144 143 132 122 140 163 177 145 148 144 145 151 158 146 199 193 179 219 214 214 275
211 200 203 205 199 196 197 191 185 182 182 185 177 156 139 150 161 154 157 148 132 104 117 159 155 138 128 129 129 151 168 164 170 192 182 257 270 256
166 141 185 191 192 179 178 184 171 177 169 171 158 154 149 157 153 153 152 151 135 145 129 94 111 120 114 137 133 171 156 163 193 178 178 253 246 245
172 187 194 196 195 180 185 181 176 173 160 158 168 157 154 159 146 146 148 154 146 149 140 129 134 93 65 357 207 153 150 175 173 189 184 191 274 252
205 197 199 197 194 185 186 180 181 176 145 147 154 150 148 151 149 152 152 144 143 149 152 140 156 119 123 176 287 213 172 175 158 173 177 183 207 266
209 201 201 193 185 181 167 163 148 146 145 141 149 152 153 152 150 151 153 150 146 143 149 153 167 165 160 178 178 229 203 158 170 191 182 192 227 265
169 137 150 163 156 157 155 148 148 148 155 151 155 157 158 153 155 154 156 157 152 153 170 179 188 168 112 101 57 235 245 219 206 181 188 149 220 244
153 150 147 148 151 154 148 151 151 152 151 147 150 150 154 150 150 152 156 159 157 167 168 142 143 132 130 162 193 199 218 216 230 247 241 220 178 253
167 165 160 155 155 154 151 152 153 150 149 147 146 151 152 146 146 150 153 151 151 158 152 143 140 147 175 182 181 182 230 257 177 201 266 257 264 272